Vertical_Velocity
-6 -4 -0 2 4 0 -1 3 -3 2 0 -4 -2 5 2 2 2 5 4 5 5 2 -2 1 3 5 2 1 4 -3 3 1 4 4 0 -1 4 7 2 2 -5 -1 -3 0
-6 -4 3 -1 -7 -4 3 -2 1 -1 -4 1 1 1 -2 -2 -0 1 0 1 2 4 3 4 -0 -1 -1 0 -3 -4 -0 0 0 -3 4 2 -5 -2 -1 -2 -2 -4 3 -2
-4 -5 -1 2 1 4 -2 -1 0 -2 1 -3 -4 -5 -1 0 -2 -2 -1 1 2 -1 3 2 3 2 -3 -0 -6 -3 -0 1 -3 1 -2 -0 -4 -1 1 -0 2 -1 -3 -4
-2 -6 -7 -0 6 -1 -3 0 -2 -0 3 4 4 2 2 -1 -3 -1 4 2 -1 6 5 1 1 -2 -1 -5 -6 -2 -5 -3 -0 -1 2 2 1 -0 1 -2 -2 -1 -0 -0
-3 -4 -3 -5 -0 0 -1 1 -2 0 -2 -2 2 -1 1 2 -1 -2 -1 -6 1 -3 -1 4 1 3 3 4 5 1 5 0 -1 2 1 3 -1 -1 -3 -3 -3 -3 -0 1
-3 -3 -4 -2 -2 1 1 -1 -5 -3 -0 -2 -2 -1 5 -1 -2 -0 -7 -2 -4 -1 -0 3 2 2 1 4 3 -1 1 3 -1 2 -3 1 2 -1 -0 -1 -3 -1 1 1
-0 -3 -6 0 -1 -0 -0 -3 0 -3 -5 -2 -5 -9 4 -10 -5 -1 -3 4 -3 -2 2 1 -1 -2 -3 1 -1 8 2 1 -1 2 6 -0 -0 0 -2 -1 -2 2 3 1
-2 -4 -5 -3 1 2 2 -2 -1 -1 -1 -0 -6 -7 1 -3 -4 -5 -6 0 0 -1 -2 2 1 -0 2 0 -1 13 0 1 3 -1 -1 1 1 -1 1 0 -1 2 -2 1
1 -4 -1 -13 0 2 2 0 2 -3 -1 3 -1 -4 -1 2 -1 -0 -5 -1 -2 -3 -1 1 1 -1 -0 -3 -1 19 -8 4 6 1 3 1 2 3 1 3 5 3 -1 -3
1 2 -2 1 -0 4 1 -1 -3 -1 -3 -2 -3 -3 -1 0 2 -0 0 -5 -2 -0 0 0 -0 1 1 -4 -0 -6 -0 -0 3 3 4 1 0 -1 4 1 1 -2 3 -5
1 4 -2 -3 -6 6 -0 1 0 0 1 -3 -3 -0 -2 -0 3 -1 1 0 -1 -2 -1 -2 -2 -4 -3 -6 1 -1 1 0 1 -0 -2 -3 -2 2 1 -0 -3 -2 -2 6
1 2 -5 -5 -15 -4 2 1 -1 0 1 -0 -3 1 -3 -4 -2 -1 2 2 3 0 -1 -1 1 0 -0 -3 -2 1 -1 1 0 -3 -4 1 1 3 -3 -0 0 -1 2 -3
2 -7 2 -1 -10 -6 -2 3 4 0 -0 2 -6 7 -1 -3 -2 -0 -0 -2 2 5 4 3 -0 0 -2 1 5 2 1 1 4 3 3 1 -0 -2 1 -3 2 -1 -0 -1
5 -2 1 -4 -8 9 -1 4 -2 -1 -2 3 1 1 2 1 0 -1 -0 -1 -1 2 4 3 7 1 -2 3 4 4 -1 1 2 0 -2 -1 -1 -0 -1 0 1 -0 -2 -1
3 -1 -0 0 -1 -7 -1 3 -1 1 -2 -4 4 -5 -2 -1 -0 0 -0 2 1 3 3 1 -0 4 6 -0 1 1 -3 -1 -1 -1 0 3 -4 3 -0 -1 -0 -1 2 3
2 1 2 -2 -6 0 -3 -2 -1 -5 -1 -0 -0 0 2 3 -0 2 3 -0 -1 -1 -3 -0 1 5 2 -2 -2 2 2 -2 -0 1 2 -3 1 -1 0 3 0 1 0 -0
-0 -2 -2 -4 -5 -5 -21 9 2 -2 -4 -4 -3 5 3 -2 0 2 3 4 1 -0 -0 -1 -2 -3 -3 -3 -1 -3 0 2 2 1 1 -2 -2 2 1 2 1 0 -2 -2
-1 3 -1 -5 0 -19 17 0 2 -2 -0 0 -2 -1 -1 -1 0 -3 -3 -1 -1 -1 -1 -2 -2 -2 -2 -1 -1 -2 -1 0 -2 -3 -1 2 1 1 -2 -2 -2 0 -1 1
0 1 -3 -5 0 -5 -7 6 -1 -1 -4 -1 -0 -0 -0 1 -1 -1 0 -0 -0 -1 -1 -1 0 2 4 4 4 3 2 2 2 1 1 -1 -0 -1 -0 0 1 -1 3 3
-0 1 1 3 -5 -7 8 -7 0 -2 -9 5 4 1 -0 -1 -0 -0 -1 0 -2 -3 -4 -3 -2 -3 -3 -3 -2 -1 -1 -0 0 0 -0 -1 -1 -1 -1 -0 -1 -0 -0 3
-1 0 -4 3 -5 -10 4 8 3 -15 15 -6 -1 -3 -4 -2 -1 -0 0 -0 -2 -2 -3 -4 -2 -1 -1 -2 -1 -2 -1 -1 -1 -1 -2 -3 -2 -1 1 2 -1 1 -0 -0
-0 0 3 1 -6 -12 10 -5 -1 7 -4 -6 -6 -2 -2 -1 -1 -1 -2 -1 -2 -0 2 1 -0 -3 -3 -3 -3 -2 -1 -1 -3 -4 -3 -2 0 -0 -1 1 1 1 -0 0
-13 1 3 3 -3 3 2 3 1 0 -1 -4 -3 -0 1 0 -1 -1 -0 1 1 1 0 -0 0 1 1 -1 0 0 1 -0 -1 0 0 -0 1 -0 -1 2 2 2 -2 -5
-6 2 -4 4 3 6 -2 3 4 1 -2 -5 -1 1 4 2 3 2 2 1 2 1 -0 -1 -1 -0 -1 -1 -2 -1 -0 -1 -1 -1 -1 -3 -0 0 -2 -1 -4 -3 3 -3
23 1 -1 3 -1 6 -0 1 2 2 0 -3 2 2 2 2 1 0 -1 -1 -2 -1 -2 0 0 -1 -1 -1 -0 0 0 0 -0 -1 -1 -1 -3 -3 2 2 -1 0 9 -1
5 -4 -4 8 6 -3 1 -1 -1 4 2 -1 -0 -0 -1 0 -1 -2 -2 -2 -2 -1 -0 0 -0 -1 -0 -0 0 -0 -1 1 1 -1 -0 -0 2 2 -1 -3 6 16 1 3
Height
5756 5755 5755 5757 5758 5758 5758 5760 5759 5761 5759 5761 5761 5765 5767 5768 5769 5770 5772 5771 5772 5774 5773 5774 5776 5778 5779 5780 5781 5781 5781 5783 5783 5783 5782 5783 5783 5783 5783 5783 5781 5780 5779 5778
5756 5754 5755 5755 5757 5759 5761 5761 5761 5762 5761 5762 5762 5764 5765 5766 5767 5769 5770 5772 5773 5774 5775 5776 5777 5777 5776 5776 5777 5778 5779 5780 5779 5778 5779 5779 5781 5780 5779 5779 5779 5778 5775 5773
5757 5755 5753 5754 5757 5760 5761 5761 5761 5762 5762 5762 5763 5764 5765 5766 5766 5767 5769 5771 5772 5773 5775 5775 5775 5774 5774 5775 5774 5774 5776 5776 5775 5775 5776 5776 5776 5775 5775 5775 5773 5770 5767 5763
5756 5754 5754 5755 5757 5759 5759 5759 5759 5759 5761 5761 5762 5764 5763 5764 5765 5767 5769 5769 5770 5772 5773 5773 5773 5773 5772 5772 5771 5770 5771 5771 5771 5771 5772 5772 5772 5772 5771 5769 5765 5761 5758 5754
5754 5754 5755 5757 5759 5759 5761 5760 5760 5760 5760 5760 5760 5762 5762 5763 5763 5765 5766 5765 5766 5769 5771 5771 5771 5770 5768 5769 5768 5768 5768 5767 5768 5769 5770 5769 5769 5767 5764 5761 5757 5753 5750 5745
5751 5751 5751 5755 5758 5759 5760 5760 5759 5759 5758 5758 5758 5759 5761 5763 5763 5762 5760 5761 5762 5765 5767 5768 5766 5766 5764 5764 5765 5765 5766 5766 5765 5765 5765 5765 5763 5760 5756 5753 5748 5745 5741 5735
5747 5749 5750 5752 5756 5757 5758 5758 5758 5759 5758 5757 5757 5757 5760 5760 5760 5759 5759 5760 5759 5760 5761 5762 5761 5762 5762 5761 5762 5762 5762 5763 5763 5763 5760 5758 5755 5753 5748 5744 5739 5734 5730 5724
5745 5748 5749 5752 5754 5755 5756 5757 5757 5755 5754 5754 5754 5755 5757 5758 5758 5757 5757 5758 5757 5757 5757 5758 5758 5759 5759 5759 5758 5757 5759 5759 5758 5756 5754 5752 5748 5744 5739 5734 5729 5725 5719 5714
5743 5744 5746 5748 5750 5752 5753 5753 5754 5752 5751 5750 5750 5752 5754 5755 5755 5754 5753 5754 5755 5755 5756 5756 5756 5756 5756 5755 5754 5753 5753 5752 5751 5750 5746 5743 5739 5735 5730 5726 5721 5714 5707 5701
5743 5742 5743 5743 5745 5748 5748 5749 5749 5748 5747 5747 5748 5748 5749 5751 5752 5751 5751 5751 5752 5753 5753 5753 5753 5752 5752 5750 5749 5748 5748 5747 5744 5741 5737 5733 5729 5725 5721 5715 5709 5704 5697 5694
5736 5738 5739 5739 5741 5743 5743 5743 5744 5745 5744 5744 5745 5747 5745 5746 5747 5747 5748 5748 5748 5749 5750 5749 5749 5749 5747 5746 5745 5743 5741 5738 5736 5732 5729 5724 5720 5716 5710 5704 5699 5695 5689 5685
5729 5732 5734 5737 5738 5738 5738 5738 5739 5740 5742 5740 5740 5744 5742 5742 5742 5742 5743 5744 5745 5745 5745 5745 5745 5744 5742 5740 5739 5738 5734 5731 5726 5723 5719 5716 5711 5706 5700 5694 5689 5684 5678 5672
5725 5725 5728 5732 5734 5734 5734 5736 5737 5736 5735 5736 5736 5739 5739 5738 5737 5737 5736 5736 5738 5739 5740 5740 5739 5738 5736 5735 5732 5730 5726 5723 5719 5715 5711 5706 5701 5696 5691 5685 5680 5674 5667 5658
5721 5722 5724 5727 5730 5729 5728 5731 5730 5730 5731 5732 5732 5733 5733 5732 5730 5729 5728 5730 5731 5733 5733 5733 5732 5730 5728 5726 5723 5720 5717 5714 5710 5704 5699 5696 5691 5686 5681 5676 5670 5661 5653 5645
5716 5717 5719 5721 5721 5723 5723 5725 5726 5726 5727 5726 5727 5726 5726 5724 5723 5722 5723 5724 5725 5726 5726 5724 5723 5722 5720 5717 5713 5711 5707 5703 5698 5694 5691 5687 5681 5676 5669 5663 5655 5647 5639 5631
5711 5712 5714 5714 5716 5718 5718 5719 5720 5720 5721 5720 5719 5719 5719 5720 5719 5718 5718 5717 5718 5717 5717 5716 5714 5712 5709 5706 5703 5701 5697 5693 5690 5687 5683 5677 5670 5664 5657 5650 5641 5633 5625 5617
5705 5705 5707 5709 5711 5710 5710 5714 5714 5715 5713 5713 5712 5713 5712 5712 5712 5712 5711 5711 5710 5709 5708 5706 5704 5701 5698 5695 5692 5689 5686 5683 5680 5675 5670 5663 5657 5650 5644 5636 5628 5620 5611 5602
5698 5700 5702 5704 5706 5703 5709 5707 5708 5707 5706 5706 5706 5705 5704 5704 5704 5704 5703 5703 5702 5701 5699 5697 5695 5692 5689 5686 5683 5679 5675 5671 5666 5661 5655 5649 5643 5637 5629 5621 5613 5605 5595 5587
5691 5694 5696 5696 5699 5699 5699 5701 5701 5699 5699 5699 5699 5698 5697 5696 5696 5696 5697 5696 5695 5693 5691 5688 5687 5685 5682 5679 5675 5670 5665 5660 5654 5648 5643 5636 5629 5622 5614 5607 5599 5590 5582 5572
5685 5688 5690 5689 5691 5692 5695 5694 5693 5693 5692 5694 5693 5691 5690 5689 5689 5690 5689 5687 5686 5684 5682 5680 5678 5674 5671 5667 5662 5657 5652 5647 5641 5635 5628 5622 5615 5608 5600 5591 5583 5574 5566 5557
5677 5680 5681 5683 5684 5685 5688 5689 5687 5685 5692 5685 5685 5683 5682 5683 5683 5682 5681 5679 5677 5675 5673 5671 5668 5664 5660 5656 5650 5645 5639 5634 5627 5621 5615 5608 5600 5592 5584 5576 5567 5558 5550 5540
5671 5673 5675 5677 5678 5679 5682 5679 5680 5681 5678 5677 5676 5676 5676 5675 5675 5674 5672 5671 5669 5667 5664 5661 5657 5653 5648 5643 5637 5632 5627 5621 5614 5607 5600 5593 5585 5577 5569 5560 5551 5541 5532 5522
5663 5667 5668 5671 5672 5673 5673 5673 5672 5671 5670 5670 5669 5670 5669 5669 5668 5666 5665 5663 5661 5658 5654 5649 5644 5639 5634 5629 5624 5618 5612 5606 5599 5593 5586 5578 5569 5561 5553 5544 5534 5524 5512 5502
5654 5659 5660 5663 5665 5667 5666 5666 5665 5664 5663 5662 5663 5663 5663 5662 5660 5658 5656 5653 5649 5645 5640 5636 5631 5626 5621 5616 5610 5604 5597 5591 5584 5577 5569 5561 5553 5545 5535 5525 5514 5505 5494 5483
5647 5650 5653 5655 5658 5660 5659 5658 5658 5659 5658 5657 5657 5656 5654 5652 5649 5647 5643 5640 5636 5632 5628 5623 5618 5612 5607 5601 5595 5589 5583 5576 5569 5561 5553 5544 5536 5527 5519 5509 5498 5487 5477 5462
5637 5641 5644 5648 5650 5650 5651 5651 5650 5651 5651 5650 5649 5647 5645 5642 5639 5635 5632 5629 5624 5620 5615 5609 5604 5598 5592 5586 5580 5574 5568 5561 5553 5544 5536 5528 5520 5510 5500 5491 5485 5471 5458 5447